Find Starlink 34301

NORAD ID: 64349 Int'l Des: 2025-126 Owner: SPXS Country: US Constellation: starlink operational
LEOCIRCULAR

Live-Position

3D-Globus wird geladen...

Über Starlink 34301

Beschreibung wird geladen...

Nächste Überflüge

Passes for default location (London). Set your location on the main map for personalized predictions.

Höhenverlauf

Loading altitude history...

Zweizeiliger Elementsatz

1 64349U 25126F 26106.81001975 -.00002360 00000-0 -19001-3 0 9995
2 64349 69.9999 298.2725 0002074 270.2699 89.8223 14.98342169 46393
Epoch: 16. Apr. 2026 • Age: 12 hours

Aktueller Status

Höhe 583.0 km
Geschwindigkeit 7.57 km/s
Subsatellitenpunkt 60.30°N, 26.7°E
Startdatum 13. Juni 2025
Alter 0.8 years
Typ internet

Technische Details

Klassifizierung Payload
Masse 575.00 kg
Trockenmasse 530.00 kg
Gesamtmasse 575.00 kg
Länge 0.30 m
Durchmesser 4.10 m
Spannweite 29.00 m
Form Box + pan
Hersteller SPXS
Bus-Typ Starlink V2MO
Phasenstatus In Orbit
Besitzer/Staat SPXS/US

Most Searched